[[{"header":{"parameterUnit":"m.s-1","parameterCategory":1,"la1":30.2991,"la2":30.254,"lo1":-89.0895,"lo2":-89.0444,"dy":0.0017,"dx":0.0017,"nx":28,"ny":28,"refTime":"2025-02-04T03:00:00:Z","depth":0,"parameterNumber":2,"parameterNumberName":"U-component_of_WINDS"},"data":[0,0,0,0,0,0,0,0,0,0,0,0,0,0,0,0,0,0,0,0,0,0,0,0,0,0,0,0,0,0,0,0,0,0,0,0,0,0,0,0,0,0,0,0,0,0,0,0,0,0,0,0,0,0,0,0,0,0,-0.4335,-0.4335,0,-0.4293,-0.4292,-0.4292,-0.4289,-0.4289,-0.429,-0.429,-0.4244,-0.4242,-0.4241,0,0,0,0,0,0,0,0,0,0,0,0,0,-0.441,-0.4408,-0.4335,-0.4335,-0.4334,-0.4293,-0.4292,-0.4292,-0.4289,-0.4289,-0.429,-0.429,-0.4245,-0.4243,-0.4241,0,0,0,0,0,0,0,0,0,0,0,0,0,-0.4373,-0.4408,-0.4335,-0.4328,-0.4326,-0.4293,-0.4292,-0.4291,-0.4288,-0.4289,-0.429,-0.4291,-0.4245,-0.4243,-0.424,-0.421,0,0,-0.4233,-0.4232,0,0,0,0,0,0,0,0,-0.4375,-0.437,-0.4329,-0.4328,-0.4327,-0.4297,-0.4302,-0.4264,-0.4288,-0.4303,-0.429,-0.4291,-0.4261,-0.4257,-0.4247,-0.4208,-0.4206,-0.4232,-0.4231,-0.423,-0.4229,0,0,0,0,0,0,0,-0.4378,-0.4372,-0.4318,-0.4329,-0.4327,-0.4325,-0.4321,-0.4294,-0.4278,-0.4302,-0.4301,-0.4296,-0.426,-0.425,-0.4246,-0.4206,-0.4232,-0.423,-0.4229,-0.4228,-0.4137,-0.4136,0,0,0,0,0,0,-0.4382,-0.4374,-0.432,-0.4317,-0.4353,-0.4323,-0.4318,-0.4306,-0.4279,-0.4275,-0.4296,-0.4296,-0.4254,-0.4249,-0.4245,-0.4206,-0.423,-0.4227,-0.4226,-0.4138,-0.4137,-0.4136,0,0,0,0,0,0,-0.4384,-0.4377,-0.4321,-0.4346,-0.4338,-0.4321,-0.4307,-0.4304,-0.4294,-0.4274,-0.4271,-0.4289,-0.4254,-0.4248,-0.4219,-0.4205,-0.4226,-0.4224,-0.4139,-0.4138,-0.4137,-0.413,0,0,0,0,0,0,-0.4386,-0.4378,-0.4368,-0.4345,-0.4337,-0.4297,-0.4306,-0.4303,-0.429,-0.429,-0.4266,-0.4263,-0.4254,-0.4222,-0.4216,-0.4202,-0.4222,-0.414,-0.4139,-0.4137,-0.4132,-0.4129,-0.4126,0,0,0,0,0,-0.4389,-0.4367,-0.4367,-0.436,-0.4324,-0.4296,-0.4291,-0.4282,-0.4289,-0.4277,-0.4264,-0.4264,-0.4208,-0.4219,-0.4212,-0.4197,-0.4141,-0.4139,-0.4137,-0.4133,-0.4129,-0.4127,0,0,0,0,0,0,-0.4388,-0.4364,-0.4364,-0.4335,-0.4318,-0.4296,-0.4281,-0.428,-0.4259,-0.4261,-0.4249,-0.4244,-0.4214,-0.4203,-0.4216,-0.4165,-0.4175,-0.4171,-0.4174,-0.417,-0.4168,-0.4171,-0.422,0,0,0,0,0,-0.4384,-0.4365,-0.4345,-0.4322,-0.4313,-0.4299,-0.4286,-0.4281,-0.4262,-0.4255,-0.424,-0.4221,-0.4198,-0.4184,-0.4163,-0.413,-0.4124,-0.4116,-0.4113,-0.4111,-0.4108,-0.4087,-0.4083,-0.413,-0.413,-0.413,0,0,-0.4377,-0.4362,-0.435,-0.4321,-0.4307,-0.4286,-0.4293,-0.427,-0.4254,-0.4251,-0.4222,-0.421,-0.4188,-0.4156,-0.4142,-0.4146,-0.4094,-0.4109,-0.4107,-0.4105,-0.4085,-0.4081,-0.4077,-0.4128,-0.4128,-0.4129,0,0,-0.4352,-0.4339,-0.4317,-0.4303,-0.4282,-0.4272,-0.4267,-0.4245,-0.4237,-0.4208,-0.4204,-0.4184,-0.4147,-0.4131,-0.4118,-0.4085,-0.4083,-0.4078,-0.4064,-0.4045,-0.4041,-0.4037,-0.4024,-0.4019,-0.4075,-0.4075,-0.4075,0,-0.4345,-0.4314,-0.4306,-0.4283,-0.427,-0.4267,-0.4243,-0.4229,-0.4202,-0.4192,-0.4197,-0.4149,-0.4134,-0.4097,-0.4089,-0.4079,-0.4071,-0.408,-0.4042,-0.4039,-0.4036,-0.4022,-0.4017,-0.4075,-0.4075,-0.4075,-0.4075,0,-0.4305,-0.4284,-0.4268,-0.4242,-0.4227,-0.4204,-0.4191,-0.4176,-0.4172,-0.4161,-0.413,-0.4112,-0.4086,-0.4077,-0.4072,-0.4039,-0.4042,-0.4045,-0.4054,-0.4031,-0.4018,-0.4013,-0.4074,-0.4074,-0.4074,-0.4074,0,0,-0.4279,-0.4248,-0.4242,-0.4229,-0.4205,-0.4187,-0.4163,-0.4138,-0.4125,-0.4106,-0.4084,-0.4052,-0.4054,-0.4039,-0.4033,-0.4016,-0.3988,-0.402,-0.402,-0.4013,-0.3947,-0.3944,-0.3938,-0.3987,-0.3986,-0.3985,-0.3948,0,-0.425,-0.4208,-0.4199,-0.4163,-0.4141,-0.4137,-0.4116,-0.4098,-0.4087,-0.4066,-0.4054,-0.403,-0.4036,-0.4026,-0.401,-0.3995,-0.3974,-0.3998,-0.3965,-0.3963,-0.3969,-0.3932,-0.3928,-0.3895,-0.3943,-0.3943,-0.3942,0,-0.4211,-0.4191,-0.4152,-0.4128,-0.4119,-0.41,-0.4076,-0.4057,-0.4035,-0.4028,-0.4011,-0.4006,-0.3979,-0.399,-0.3951,-0.3967,-0.3953,-0.3944,-0.3942,-0.3938,-0.395,-0.3924,-0.3884,-0.3878,-0.3935,-0.3935,-0.3936,0,-0.4193,-0.4156,-0.4128,-0.4117,-0.409,-0.4076,-0.4064,-0.4043,-0.4028,-0.4006,-0.3996,-0.3971,-0.3957,-0.3937,-0.3924,-0.3934,-0.3886,-0.3897,-0.3878,-0.3878,-0.3867,-0.3867,-0.3821,-0.386,-0.3861,-0.3861,-0.3861,0,-0.4161,-0.4137,-0.4119,-0.4101,-0.4073,-0.4063,-0.4035,-0.4023,-0.4004,-0.3983,-0.3978,-0.3957,-0.3943,-0.392,-0.391,-0.3878,-0.3872,-0.3864,-0.3862,-0.3864,-0.3865,-0.3853,-0.3855,-0.3859,-0.386,-0.386,-0.386,0,-0.4136,-0.4124,-0.4092,-0.4068,-0.4062,-0.4042,-0.4021,-0.4002,-0.3991,-0.3964,-0.3957,-0.3938,-0.3911,-0.3897,-0.3863,-0.3856,-0.3819,-0.3819,-0.3827,-0.3825,-0.3806,-0.3807,-0.375,-0.3741,-0.3788,-0.3787,-0.3787,0,-0.4116,-0.4097,-0.4071,-0.4056,-0.4044,-0.4021,-0.4005,-0.3994,-0.3977,-0.395,-0.3935,-0.3907,-0.3884,-0.384,-0.3823,-0.3796,-0.3794,-0.3776,-0.379,-0.3792,-0.3791,-0.3792,-0.3788,-0.3773,-0.3772,-0.3772,-0.3772,0,-0.408,-0.4074,-0.4053,-0.4028,-0.4009,-0.3989,-0.3969,-0.3957,-0.3942,-0.3923,-0.3895,-0.3878,-0.3842,-0.3814,-0.3786,-0.3772,-0.3768,-0.3767,-0.3761,-0.3762,-0.3767,-0.3762,-0.3818,-0.3769,-0.3769,-0.3769,-0.3769,-0.3769,-0.4055,-0.4038,-0.4016,-0.3991,-0.3975,-0.3956,-0.3937,-0.3923,-0.39,-0.387,-0.3865,-0.3834,-0.3811,-0.3773,-0.3758,-0.3733,-0.3736,-0.3728,-0.3725,-0.3723,-0.3721,-0.3772,-0.3728,-0.3728,-0.3728,-0.3728,-0.3728,0,-0.4018,-0.4004,-0.3981,-0.3953,-0.3932,-0.3932,-0.3909,-0.3892,-0.3866,-0.3845,-0.3822,-0.3789,-0.3761,-0.3741,-0.3713,-0.3696,-0.3694,-0.3689,-0.3689,-0.3685,-0.372,-0.3728,-0.3691,-0.3691,-0.3691,-0.3691,-0.3691,-0.3691,-0.3996,-0.3965,-0.3957,-0.3917,-0.3902,-0.3873,-0.386,-0.3841,-0.3825,-0.3788,-0.3765,-0.3752,-0.3731,-0.37,-0.3674,-0.3669,-0.3657,-0.3652,-0.3646,-0.3679,-0.3683,-0.3687,-0.3693,-0.365,-0.365,-0.3613,-0.3613,-0.3612]},{"header":{"parameterUnit":"m.s-1","parameterCategory":1,"la1":30.2991,"la2":30.254,"lo1":-89.0895,"lo2":-89.0444,"dy":0.0017,"dx":0.0017,"nx":28,"ny":28,"refTime":"2025-02-04T03:00:00:Z","depth":0,"parameterNumber":3,"parameterNumberName":"V-component_of_WINDS"},"data":[0,0,0,0,0,0,0,0,0,0,0,0,0,0,0,0,0,0,0,0,0,0,0,0,0,0,0,0,0,0,0,0,0,0,0,0,0,0,0,0,0,0,0,0,0,0,0,0,0,0,0,0,0,0,0,0,0,0,1.4235,1.4236,0,1.4254,1.4254,1.4254,1.4244,1.4243,1.4243,1.4242,1.4259,1.426,1.4261,0,0,0,0,0,0,0,0,0,0,0,0,0,1.4189,1.419,1.4235,1.4236,1.4236,1.4254,1.4254,1.4254,1.4244,1.4243,1.4242,1.4242,1.4259,1.426,1.4261,0,0,0,0,0,0,0,0,0,0,0,0,0,1.4208,1.419,1.4235,1.4233,1.4233,1.4254,1.4254,1.4255,1.4244,1.4243,1.4242,1.4242,1.4258,1.426,1.4261,1.4285,0,0,1.4265,1.4266,0,0,0,0,0,0,0,0,1.4207,1.421,1.4233,1.4233,1.4233,1.4246,1.4244,1.4265,1.4244,1.424,1.4242,1.4241,1.4255,1.4257,1.4262,1.4286,1.4287,1.4266,1.4266,1.4267,1.4267,0,0,0,0,0,0,0,1.4206,1.4209,1.4243,1.4233,1.4233,1.423,1.4232,1.4248,1.4251,1.424,1.4239,1.4242,1.4255,1.4261,1.4262,1.4287,1.4266,1.4267,1.4268,1.4268,1.4333,1.4334,0,0,0,0,0,0,1.4205,1.4208,1.4242,1.4243,1.4218,1.4231,1.4234,1.4242,1.4251,1.4252,1.4242,1.4241,1.4259,1.4261,1.4263,1.4293,1.4267,1.4268,1.4269,1.4333,1.4334,1.4335,0,0,0,0,0,0,1.4204,1.4208,1.4241,1.4225,1.4229,1.4233,1.4243,1.4243,1.4249,1.4253,1.4253,1.4248,1.4258,1.4261,1.428,1.4293,1.4269,1.427,1.4332,1.4333,1.4334,1.4353,0,0,0,0,0,0,1.4203,1.4208,1.4217,1.4226,1.423,1.4259,1.4244,1.4244,1.4251,1.425,1.4258,1.4259,1.4258,1.4278,1.4282,1.4295,1.4271,1.433,1.4332,1.4334,1.4351,1.4355,1.4358,0,0,0,0,0,1.4201,1.4221,1.4218,1.4222,1.4243,1.426,1.4262,1.4262,1.4253,1.4262,1.4265,1.4258,1.4291,1.428,1.4284,1.4298,1.433,1.4332,1.4334,1.435,1.4354,1.4358,0,0,0,0,0,0,1.4213,1.4222,1.4219,1.4243,1.4251,1.4258,1.427,1.4266,1.4276,1.4275,1.4272,1.4274,1.4295,1.4298,1.4286,1.4322,1.4309,1.4312,1.432,1.4324,1.4327,1.4327,1.4273,0,0,0,0,0,1.4219,1.4233,1.424,1.426,1.4264,1.4267,1.4274,1.4273,1.4281,1.4284,1.4288,1.4296,1.4308,1.4316,1.4327,1.4351,1.4353,1.4362,1.4366,1.4368,1.4371,1.4385,1.439,1.4341,1.4341,1.4341,0,0,1.4231,1.4237,1.4246,1.4263,1.4269,1.4283,1.427,1.4285,1.4295,1.4286,1.4306,1.4309,1.4317,1.4339,1.4349,1.4343,1.4385,1.4371,1.4373,1.4375,1.4388,1.4393,1.4397,1.4343,1.4342,1.4342,0,0,1.426,1.4265,1.4284,1.4291,1.43,1.4302,1.4306,1.4314,1.4317,1.4336,1.433,1.4341,1.4362,1.4369,1.4375,1.4406,1.4401,1.441,1.4428,1.4441,1.4445,1.4449,1.4461,1.4466,1.4412,1.4412,1.4412,0,1.4273,1.4295,1.4293,1.431,1.4318,1.431,1.4329,1.4335,1.4348,1.4353,1.4345,1.4372,1.4377,1.4401,1.4409,1.4413,1.4419,1.441,1.4445,1.4448,1.4452,1.4464,1.4468,1.4414,1.4413,1.4413,1.4413,0,1.4311,1.4326,1.434,1.4354,1.4362,1.438,1.4381,1.439,1.4387,1.439,1.441,1.4415,1.4428,1.4433,1.4431,1.4458,1.4453,1.4445,1.4432,1.4457,1.4469,1.4473,1.4415,1.4415,1.4414,1.4414,0,0,1.4349,1.4363,1.4368,1.4374,1.4385,1.4396,1.4413,1.4426,1.4435,1.4443,1.4458,1.4475,1.4468,1.4475,1.4473,1.4485,1.4511,1.4476,1.4476,1.4483,1.4543,1.455,1.4556,1.4507,1.4508,1.4509,1.4543,0,1.438,1.4411,1.441,1.4439,1.4453,1.4446,1.4461,1.4469,1.4471,1.4483,1.4485,1.4499,1.4487,1.4492,1.4503,1.4506,1.4524,1.4503,1.4521,1.4522,1.4521,1.4561,1.4569,1.4601,1.4547,1.4548,1.4548,0,1.4421,1.4432,1.4463,1.4472,1.4478,1.4491,1.4504,1.4515,1.4524,1.4525,1.4533,1.4529,1.4546,1.4531,1.4554,1.454,1.4547,1.455,1.4551,1.4554,1.4538,1.4567,1.4611,1.4616,1.4555,1.4554,1.4554,0,1.4448,1.447,1.4492,1.4497,1.4508,1.4518,1.4523,1.453,1.4539,1.4549,1.4555,1.4567,1.4574,1.4583,1.4582,1.4571,1.4606,1.4591,1.4608,1.4608,1.4617,1.4617,1.4665,1.4619,1.4619,1.4619,1.4619,0,1.4483,1.4502,1.4504,1.4518,1.4539,1.4537,1.4558,1.4562,1.4569,1.4583,1.4576,1.4589,1.4587,1.46,1.4599,1.4619,1.4622,1.4623,1.4623,1.4625,1.4625,1.4631,1.4629,1.462,1.462,1.462,1.4619,0,1.4518,1.452,1.4543,1.4551,1.4554,1.4569,1.4576,1.4589,1.459,1.4608,1.4612,1.4614,1.4629,1.4629,1.4645,1.4645,1.467,1.4667,1.4668,1.4668,1.4686,1.4685,1.474,1.4748,1.4695,1.4696,1.4696,0,1.4541,1.4556,1.4567,1.4576,1.4582,1.4596,1.4605,1.4604,1.4613,1.4624,1.4636,1.465,1.4661,1.4685,1.4688,1.4701,1.4699,1.4717,1.47,1.4702,1.4701,1.4701,1.4703,1.4721,1.4721,1.4722,1.4722,0,1.4584,1.4584,1.4598,1.4612,1.4623,1.4633,1.4643,1.4651,1.465,1.4661,1.4677,1.4686,1.4703,1.4717,1.473,1.4734,1.4729,1.4727,1.4732,1.4735,1.4736,1.4737,1.4679,1.4726,1.4726,1.4726,1.4725,1.4725,1.4615,1.4628,1.4638,1.4653,1.4661,1.467,1.4683,1.4686,1.47,1.4714,1.4712,1.473,1.4738,1.4754,1.4759,1.4773,1.4766,1.4773,1.4775,1.4777,1.478,1.4732,1.4775,1.4775,1.4774,1.4774,1.4774,0,1.4658,1.4664,1.4678,1.4693,1.4705,1.4699,1.4709,1.472,1.4736,1.4744,1.4756,1.4774,1.4788,1.4792,1.4806,1.4816,1.4814,1.482,1.482,1.4821,1.4784,1.478,1.4821,1.4821,1.4821,1.4821,1.4821,1.4821,1.4683,1.4706,1.4707,1.4733,1.4739,1.4757,1.4764,1.4772,1.4779,1.48,1.4812,1.4815,1.4822,1.4836,1.4848,1.4849,1.4855,1.4862,1.4862,1.4828,1.4824,1.4819,1.4815,1.4863,1.4863,1.4898,1.4899,1.4899]}]]